Center Hill Lake Weather Center

Moon Phase Calendar



Center Hill Lake Water Level
Online Cameras

 


      

Current Conditions in Smithville
10/4/2022 8:05:25 AM

47°F
Feels Like 47
Clear
Humidity
99%
Pressure
30.18"
Wind
0
Dew Point
46°F
UV Index
0/10 (Low)
Visibility
6 mi

Hourly Forecast

Date & Time Tue, Oct 4
8:00 AM
Tue, Oct 4
9:00 AM
Tue, Oct 4
10:00 AM
Tue, Oct 4
11:00 AM
Tue, Oct 4
12:00 PM
Tue, Oct 4
1:00 PM
Tue, Oct 4
2:00 PM
Tue, Oct 4
3:00 PM
Tue, Oct 4
4:00 PM
Tue, Oct 4
5:00 PM
Tue, Oct 4
6:00 PM
Tue, Oct 4
7:00 PM
Tue, Oct 4
8:00 PM
Tue, Oct 4
9:00 PM
Tue, Oct 4
10:00 PM
Tue, Oct 4
11:00 PM
Wed, Oct 5
12:00 AM
Wed, Oct 5
1:00 AM
Wed, Oct 5
2:00 AM
Wed, Oct 5
3:00 AM
Wed, Oct 5
4:00 AM
Wed, Oct 5
5:00 AM
Wed, Oct 5
6:00 AM
Wed, Oct 5
7:00 AM
Wed, Oct 5
8:00 AM
Wed, Oct 5
9:00 AM
Wed, Oct 5
10:00 AM
Wed, Oct 5
11:00 AM
Wed, Oct 5
12:00 PM
Wed, Oct 5
1:00 PM
Wed, Oct 5
2:00 PM
Wed, Oct 5
3:00 PM
Wed, Oct 5
4:00 PM
Wed, Oct 5
5:00 PM
Wed, Oct 5
6:00 PM
Wed, Oct 5
7:00 PM
Wed, Oct 5
8:00 PM
Wed, Oct 5
9:00 PM
Wed, Oct 5
10:00 PM
Wed, Oct 5
11:00 PM
Thu, Oct 6
12:00 AM
Thu, Oct 6
1:00 AM
Thu, Oct 6
2:00 AM
Thu, Oct 6
3:00 AM
Thu, Oct 6
4:00 AM
Thu, Oct 6
5:00 AM
Thu, Oct 6
6:00 AM
Thu, Oct 6
7:00 AM
Condition
Clear

Clear

Clear

Clear

Clear

Clear

Clear

Clear

Clear

Clear

Clear

Clear

Clear

Clear

Clear

Clear

Clear

Clear

Clear

Clear

Clear

Clear

Clear

Clear

Clear

Clear

Clear

Clear

Clear

Clouds

Clouds

Clouds

Clouds

Clouds

Clouds

Clouds

Clouds

Clear

Clear

Clear

Clear

Clear

Clear

Clear

Clear

Clear

Clouds

Clouds
Temperature 47°F48°F52°F57°F63°F69°F70°F71°F70°F67°F60°F55°F52°F51°F50°F50°F48°F48°F47°F46°F46°F45°F45°F45°F51°F57°F62°F66°F69°F71°F72°F72°F71°F69°F62°F57°F55°F54°F52°F51°F50°F50°F49°F49°F48°F48°F48°F49°F
Feels Like 47°F48°F51°F56°F61°F67°F68°F69°F68°F66°F58°F53°F50°F49°F48°F49°F48°F48°F47°F46°F46°F45°F45°F45°F48°F55°F60°F64°F67°F69°F70°F70°F70°F68°F60°F56°F53°F52°F51°F49°F48°F50°F49°F49°F48°F48°F48°F48°F
Cloudiness 0%0%0%0%0%0%0%0%0%0%0%0%0%0%0%0%0%0%0%0%0%0%0%0%0%2%3%4%8%14%64%80%87%90%88%82%17%9%6%4%4%3%0%0%0%1%11%17%
Visibility 6 mi6 mi6 mi6 mi6 mi6 mi6 mi6 mi6 mi6 mi6 mi6 mi6 mi6 mi6 mi6 mi6 mi6 mi6 mi6 mi6 mi6 mi6 mi6 mi6 mi6 mi6 mi6 mi6 mi6 mi6 mi6 mi6 mi6 mi6 mi6 mi6 mi6 mi6 mi6 mi6 mi6 mi6 mi6 mi6 mi6 mi6 mi6 mi
Precipitation 0%0%0%0%0%0%0%0%0%0%0%0%0%0%0%0%0%0%0%0%0%0%0%0%0%0%0%0%0%0%0%0%0%0%0%0%0%0%0%0%0%0%0%0%0%0%0%0%
Humidity 99%91%80%67%52%36%33%32%37%49%56%56%59%59%59%59%60%61%61%61%61%61%60%61%57%49%44%40%38%36%35%35%40%54%60%64%67%69%70%70%72%72%72%72%72%71%71%70%
Dew Point 46°F46°F46°F46°F45°F40°F39°F39°F42°F47°F44°F39°F38°F37°F36°F36°F35°F34°F34°F33°F33°F32°F32°F32°F36°F38°F40°F41°F42°F42°F43°F43°F45°F51°F47°F45°F44°F43°F42°F42°F41°F41°F40°F40°F40°F39°F39°F39°F
Pressure 30.18"30.18"30.18"30.18"30.15"30.12"30.09"30.09"30.06"30.06"30.09"30.09"30.12"30.12"30.15"30.12"30.12"30.12"30.12"30.12"30.12"30.12"30.15"30.15"30.15"30.15"30.15"30.15"30.12"30.09"30.09"30.06"30.06"30.06"30.06"30.09"30.09"30.12"30.12"30.09"30.12"30.12"30.12"30.09"30.09"30.12"30.12"30.12"
Wind Speed 2.4 mph2.6 mph3.1 mph3.6 mph4.6 mph4.8 mph5.3 mph5.9 mph5.8 mph4.8 mph4.7 mph5.1 mph4.7 mph4.2 mph3.9 mph3.7 mph3.1 mph2.6 mph2.5 mph2.3 mph1.8 mph1.7 mph2.5 mph1.7 mph1.5 mph2.5 mph3.5 mph4.1 mph4.2 mph4.5 mph4.8 mph4.7 mph4.4 mph3 mph2.8 mph2.8 mph2.6 mph2.6 mph2.6 mph2.9 mph2.2 mph2.8 mph3.2 mph3 mph2.5 mph2.9 mph2.9 mph3.5 mph
Wind
Direction
53°
NE
44°
NE
29°
NNE
14°
NNE
13°
NNE
14°
NNE
16°
NNE
19°
NNE
19°
NNE

N

N
16°
NNE
24°
NNE
47°
NE
61°
ENE
69°
ENE
83°
E
83°
E
81°
E
81°
E
82°
E
71°
ENE
66°
ENE
65°
ENE
61°
ENE
38°
NE
21°
NNE
16°
NNE

N

N

N

N
11°
N
357°
N
349°
N
356°
N
19°
NNE
54°
NE
103°
ESE
125°
SE
153°
SSE
137°
SE
140°
SE
139°
SE
154°
SSE
147°
SSE
151°
SSE
158°
SSE

Daily Forecast

Date High Low Precip. Humidity
Today
Oct 4

Clear
71 °F
45 °F
0%
52%
Wednesday
Oct 5

Clear
72 °F
45 °F
0%
38%
Thursday
Oct 6

Clear
76 °F
48 °F
0%
37%
Friday
Oct 7

Clear
72 °F
49 °F
0%
52%
Saturday
Oct 8

Clear
63 °F
40 °F
0%
35%
Sunday
Oct 9

Clouds
68 °F
41 °F
0%
32%
Monday
Oct 10

Clear
76 °F
49 °F
0%
36%
Tuesday
Oct 11

Clouds
76 °F
53 °F
0%
37%
Wednesday
Oct 12

Clouds
78 °F
58 °F
0%
52%
Thursday
Oct 13

Rain
72 °F
44 °F
100%
94%
Friday
Oct 14

Clear
58 °F
38 °F
0%
28%
Saturday
Oct 15

Clouds
57 °F
32 °F
0%
25%
Sunday
Oct 16

Clear
66 °F
38 °F
0%
28%
Monday
Oct 17

Clear
73 °F
47 °F
0%
37%
Tuesday
Oct 18

Clear
60 °F
39 °F
0%
42%
Wednesday
Oct 19

Clouds
60 °F
35 °F
0%
30%

Temperature 8-14 Day Outlook



Precipitation 8-14 Day Outlook




Quick Links
Center Hill Lake News
Center Hill Lake Photos
Center Hill Lake Videos




About Us
Contact Us
Site Map
Search Site
Advertise With Us
   
CenterHill.USLakes.info
THE CENTER HILL LAKE WEBSITE

Copyright 2022, Lakes Online
Privacy    |    Legal